HIMAWARI 8

导读 | 星芒AI

HIMAWARI 8 是日本气象厅(JMA)于2015年发射的静止气象卫星,位于东经140度的地球同步轨道上。它搭载了先进的全地球高分辨率成像仪(AHI),能够提供每10分钟一次的高精度气象图像,显著提升了天气预报、灾害监测和气候研究的准确性。该卫星支持多种波段观测,可实时监测台风、暴雨、火山灰等气象现象,对东亚及西太平洋地区的气象服务具有重要意义。

基本信息
目录编号:
40267
目录名称:
HIMAWARI 8
国际标识:
2014-060A
轨道中心:
EARTH
卫星名称:
HIMAWARI 8
卫星全名:
--
卫星状态:
在轨 (已飞行4087 天)
发射日期:
2014-10-07 UTC
国别 :
日本 (JP)
星等 :
--
轨道信息
数据来源 国际轨道数据 AOE轨道数据
星历时间 2025-12-14T15:14:25+0800
1天前
查看轨道信息
2025-12-15T03:00:00+0800
13小时前
查看轨道信息
半长轴 42164.308km 42164.392km
偏心率 0.0000953 0.0000892
轨道倾角 0.021° 0.040°
近地点辐角 66.844° 87.510°
升交点赤经 215.228° 192.214°
平近点角 50.415° 229.642°
近地点 35782.154km 35782.495km
远地点 35790.192km 35790.019km
周期 1436.075分钟 1436.080分钟
每日圈数 1.002733 1.00273
详细信息
使用方式:
暂无
2D轨道图
3D轨道图
轨道高度分析图
轨道倾角分析图
轨道综合分析图
查看轨道综合分析图